Погода в Сант-Жулиа-де-Лории

Андорра     42°27′53″N   1°29′31″E
темп.,
°C
ветер,
м/с
пор.,
м/с
влажн.,
%
обл.,
%
осадки,
мм/ч
давл.,
гПа
погр.,
м
24 мая, вт
вт2423:00+7с229025 0.0 101254
02:00+6ссв229198 0.0 101244
05:00+8зюз1283100 0.0 1011175
08:00+7ююз2392100 0.4 1011216
11:00+8ююз3697100 1.4 1010438
14:00+9ююз468896 3.4 1010792
17:00+8вюв0385100 2.8 1009533
20:00+3ссв3595100 10.8 1013242
25 мая, ср
ср2523:00+1ссв4697100 7.3 1016244
02:00+1ссв3597100 9.1 1015293
05:00+1ссв469796 5.9 1016380
08:00+1ссв469699 7.3 1018378
11:00+3ссв468877 0.5 1019602
14:00+5с458469 0.7 1019603
17:00+5ссв468791 0.1 1020565
20:00+4с469379 0.3 1022365
26 мая, чт
чт2623:00+2ссв469880 0.2 1026307
02:00+3ссв469679 0.4 1025435
05:00+3ссв479889 0.1 1025366
08:00+4ссв469263 0.1 1025248
11:00+7ссв468458 0.0 1025443
14:00+10ссв457375 0.0 1024850
17:00+10ссв457551 0.1 1024791
20:00+8ссв458226 0.1 1025475
27 мая, пт
пт2723:00+5ссв459443 0.0 1027114
02:00+4ссв469326 0.0 1026103
05:00+5ссв469630 0.0 1025156
08:00+8ссв468824 0.0 1024270
11:00+12с456824 0.0 1024703
14:00+15ссв44540 0.0 10231239
17:00+15с44534 0.0 10221297
20:00+12с34694 0.0 1023654
28 мая, сб
сб2823:00+7ссв34870 0.0 102663
02:00+7ссв348940 0.0 102464
05:00+6ссв448668 0.0 102269
08:00+9ссв3581100 0.0 1021149
11:00+16с23431 0.0 1018996
14:00+19с33385 0.0 10171643
17:00+19с43414 0.0 10151672
20:00+14ссв346385 0.0 1017391